This is the latest recevied weather packets stored in our database for station/object IZ5TJI-3. If no packets are shown the sender has not sent any weather packets the latest 10 day(s).
| Time | Temp. | Humidity | Pressure | Rain* | Wind** | Luminosity | Snow |
|---|---|---|---|---|---|---|---|
| 1777626925 | 16.67° C | 36% | 1024.4 hPa | 0 mm | - | - | - |
| 1777626025 | 16.67° C | 38% | 1024.6 hPa | 0 mm | - | - | - |
| 1777625125 | 16.11° C | 38% | 1024.5 hPa | 0 mm | - | - | - |
| 1777624225 | 16.11° C | 40% | 1024.4 hPa | 0 mm | - | - | - |
| 1777623325 | 15.56° C | 43% | 1024.2 hPa | 0 mm | - | - | - |
| 1777622425 | 15.56° C | 43% | 1024.2 hPa | 0 mm | - | - | - |
| 1777621525 | 15° C | 44% | 1024.2 hPa | 0 mm | - | - | - |
| 1777620625 | 15° C | 44% | 1024.2 hPa | 0 mm | - | - | - |
| 1777619725 | 14.44° C | 45% | 1024.2 hPa | 0 mm | - | - | - |
| 1777618825 | 14.44° C | 46% | 1024 hPa | 0 mm | - | - | - |
| 1777617925 | 14.44° C | 46% | 1024 hPa | 0 mm | - | - | - |
| 1777617025 | 13.89° C | 46% | 1024 hPa | 0 mm | - | - | - |
| 1777616125 | 13.33° C | 46% | 1023.8 hPa | 0 mm | - | - | - |
| 1777615225 | 13.33° C | 46% | 1023.8 hPa | 0 mm | - | - | - |
| 1777614325 | 12.78° C | 46% | 1023.7 hPa | 0 mm | - | - | - |
| 1777613425 | 12.78° C | 46% | 1023.5 hPa | 0 mm | - | - | - |
| 1777612525 | 12.22° C | 46% | 1023.6 hPa | 0 mm | - | - | - |
| 1777611625 | 12.22° C | 47% | 1023.3 hPa | 0 mm | - | - | - |
| 1777610725 | 11.67° C | 47% | 1023.1 hPa | 0 mm | - | - | - |
| 1777609825 | 11.67° C | 47% | 1023.1 hPa | 0 mm | - | - | - |
| 1777608925 | 11.67° C | 47% | 1022.9 hPa | 0 mm | - | - | - |
| 1777608025 | 11.11° C | 48% | 1022.8 hPa | 0 mm | - | - | - |
| 1777607125 | 11.67° C | 46% | 1022.8 hPa | 0 mm | - | - | - |
| 1777606225 | 11.67° C | 46% | 1022.9 hPa | 0 mm | - | - | - |
| 1777605325 | 11.67° C | 45% | 1022.6 hPa | 0 mm | - | - | - |
* Rain latest hour (hover to see other rain measurements)
** Current wind speed in m/s (hover to see current wind gust speed)